When you browse on this site, cookies collect data to enhance your experience and personalize the content and advertising you see.
Visit our Privacy Policy to learn more. By continuing to use the site, you agree to this use of cookies and data.
  • In Spain
  • List of Countries
  • For 7 days
  • Water Temperature
  • Satellite Maps
  • Weather Map
  • Weather Widgets
  • user-avatar
    Login

    Hourly Weather Benguela

    Today, 20 January, Sunday

    Time Temperature Precipitation Wind Pressure Humidity
    00:00 +26°C° 0 mm 0 mps 759 mmHg 74%
    01:00 +28°C° 0 mm 1 mps 759 mmHg 75%
    02:00 +27°C° 0 mm 2 mps 759 mmHg 75%
    03:00 +27°C° 0 mm 2 mps 759 mmHg 74%
    04:00 +27°C° 0 mm 2 mps 759 mmHg 74%
    05:00 +28°C° 0 mm 2 mps 759 mmHg 73%
    06:00 +28°C° 0 mm 2 mps 760 mmHg 72%
    07:00 +28°C° 0 mm 1 mps 760 mmHg 71%
    08:00 +30°C° 0 mm 2 mps 760 mmHg 62%
    09:00 +31°C° 0 mm 2 mps 760 mmHg 54%
    10:00 +34°C° 0 mm 2 mps 760 mmHg 46%
    11:00 +34°C° 0 mm 3 mps 760 mmHg 46%
    12:00 +35°C° 0 mm 4 mps 759 mmHg 45%
    13:00 +36°C° 0 mm 5 mps 758 mmHg 44%
    14:00 +35°C° 0 mm 5 mps 758 mmHg 47%
    15:00 +34°C° 0 mm 4 mps 758 mmHg 49%
    16:00 +33°C° 0 mm 4 mps 757 mmHg 51%
    17:00 +31°C° 0 mm 3 mps 758 mmHg 56%
    18:00 +30°C° 0 mm 3 mps 758 mmHg 60%
    19:00 +29°C° 0 mm 2 mps 759 mmHg 64%
    20:00 +29°C° 0 mm 2 mps 759 mmHg 66%
    21:00 +29°C° 0 mm 2 mps 760 mmHg 68%
    22:00 +29°C° 0 mm 2 mps 761 mmHg 71%
    23:00 +28°C° 0 mm 2 mps 760 mmHg 71%

    Tomorrow, 21 January, Monday

    Time Temperature Precipitation Wind Pressure Humidity
    00:00 +28°C° 0 mm 2 mps 760 mmHg 72%
    01:00 +28°C° 0 mm 2 mps 760 mmHg 73%
    02:00 +28°C° 0 mm 2 mps 760 mmHg 73%
    03:00 +28°C° 0 mm 1 mps 760 mmHg 74%
    04:00 +28°C° 0 mm 1 mps 760 mmHg 74%
    05:00 +28°C° 0.3 mm 1 mps 760 mmHg 75%
    06:00 +28°C° 0.3 mm 1 mps 760 mmHg 77%
    07:00 +27°C° 0.3 mm 1 mps 760 mmHg 78%
    08:00 +28°C° 0.3 mm 1 mps 761 mmHg 77%
    09:00 +28°C° 0.3 mm 1 mps 761 mmHg 75%
    10:00 +28°C° 0.3 mm 1 mps 761 mmHg 74%
    11:00 +28°C° 1.1 mm 1 mps 761 mmHg 75%
    12:00 +27°C° 1.1 mm 1 mps 760 mmHg 76%
    13:00 +27°C° 1.1 mm 1 mps 760 mmHg 77%
    14:00 +27°C° 0.4 mm 1 mps 759 mmHg 74%
    15:00 +28°C° 0.4 mm 1 mps 759 mmHg 72%
    16:00 +28°C° 0.4 mm 1 mps 758 mmHg 69%
    17:00 +28°C° 0 mm 1 mps 758 mmHg 70%
    18:00 +28°C° 0 mm 1 mps 758 mmHg 71%
    19:00 +28°C° 0 mm 1 mps 759 mmHg 72%
    20:00 +28°C° 0 mm 1 mps 759 mmHg 73%
    21:00 +28°C° 0 mm 1 mps 760 mmHg 75%
    22:00 +27°C° 0 mm 1 mps 760 mmHg 76%
    23:00 +27°C° 0 mm 1 mps 760 mmHg 76%

    Day after tomorrow, 22 January, Tuesday

    Time Temperature Precipitation Wind Pressure Humidity
    00:00 +27°C° 0 mm 1 mps 760 mmHg 77%
    01:00 +28°C° 0 mm 1 mps 759 mmHg 77%
    02:00 +27°C° 0.1 mm 2 mps 759 mmHg 79%
    03:00 +27°C° 0.1 mm 2 mps 759 mmHg 80%
    04:00 +27°C° 0.1 mm 3 mps 759 mmHg 82%
    05:00 +27°C° 0 mm 2 mps 759 mmHg 82%
    06:00 +27°C° 0 mm 2 mps 759 mmHg 82%
    07:00 +27°C° 0 mm 1 mps 760 mmHg 82%
    08:00 +28°C° 0 mm 1 mps 760 mmHg 79%
    09:00 +29°C° 0 mm 1 mps 760 mmHg 76%
    10:00 +29°C° 0 mm 1 mps 761 mmHg 73%
    11:00 +30°C° 0 mm 2 mps 760 mmHg 69%
    12:00 +31°C° 0 mm 3 mps 759 mmHg 64%
    13:00 +34°C° 0 mm 4 mps 759 mmHg 60%
    14:00 +33°C° 0 mm 4 mps 758 mmHg 61%
    15:00 +33°C° 0 mm 4 mps 758 mmHg 61%
    16:00 +33°C° 0 mm 4 mps 757 mmHg 62%
    17:00 +32°C° 0 mm 4 mps 758 mmHg 66%
    18:00 +30°C° 0 mm 4 mps 758 mmHg 70%
    19:00 +29°C° 0 mm 4 mps 758 mmHg 74%
    20:00 +29°C° 0 mm 3 mps 759 mmHg 75%
    21:00 +29°C° 0 mm 3 mps 760 mmHg 76%
    22:00 +28°C° 0 mm 3 mps 760 mmHg 77%
    23:00 +28°C° 0 mm 2 mps 760 mmHg 78%

    23 January, Wednesday

    Time Temperature Precipitation Wind Pressure Humidity
    00:00 +28°C° 0 mm 2 mps 760 mmHg 79%
    01:00 +28°C° 0 mm 2 mps 759 mmHg 80%
    02:00 +27°C° 0 mm 2 mps 759 mmHg 81%
    03:00 +27°C° 0 mm 1 mps 759 mmHg 81%
    04:00 +27°C° 0 mm 1 mps 758 mmHg 82%
    05:00 +27°C° 0 mm 1 mps 759 mmHg 81%
    06:00 +27°C° 0 mm 1 mps 759 mmHg 80%
    07:00 +27°C° 0 mm 1 mps 759 mmHg 80%
    08:00 +29°C° 0 mm 1 mps 760 mmHg 73%
    09:00 +30°C° 0 mm 2 mps 760 mmHg 66%
    10:00 +32°C° 0 mm 2 mps 760 mmHg 59%
    11:00 +33°C° 0 mm 3 mps 759 mmHg 57%
    12:00 +34°C° 0 mm 4 mps 758 mmHg 55%
    13:00 +34°C° 0 mm 5 mps 758 mmHg 53%
    14:00 +34°C° 0 mm 5 mps 757 mmHg 54%
    15:00 +34°C° 0 mm 4 mps 757 mmHg 55%
    16:00 +33°C° 0 mm 4 mps 756 mmHg 56%
    17:00 +32°C° 0 mm 4 mps 757 mmHg 58%
    18:00 +30°C° 0 mm 4 mps 757 mmHg 61%
    19:00 +29°C° 0 mm 3 mps 758 mmHg 64%
    20:00 +29°C° 0 mm 3 mps 758 mmHg 65%
    21:00 +29°C° 0 mm 3 mps 759 mmHg 66%
    22:00 +28°C° 0 mm 2 mps 759 mmHg 67%
    23:00 +28°C° 0 mm 2 mps 759 mmHg 68%

    24 January, Thursday

    Time Temperature Precipitation Wind Pressure Humidity
    00:00 +28°C° 0 mm 2 mps 758 mmHg 69%
    01:00 +28°C° 0 mm 2 mps 758 mmHg 70%
    02:00 +27°C° 0 mm 2 mps 757 mmHg 71%
    03:00 +27°C° 0 mm 1 mps 757 mmHg 72%
    04:00 +27°C° 0 mm 1 mps 757 mmHg 73%
    05:00 +27°C° 0 mm 1 mps 757 mmHg 72%
    06:00 +27°C° 0 mm 1 mps 758 mmHg 71%
    07:00 +28°C° 0 mm 1 mps 758 mmHg 70%
    08:00 +29°C° 0 mm 1 mps 758 mmHg 63%
    09:00 +31°C° 0 mm 2 mps 758 mmHg 57%
    10:00 +34°C° 0 mm 2 mps 758 mmHg 50%
    11:00 +34°C° 0 mm 3 mps 758 mmHg 50%
    12:00 +34°C° 0 mm 4 mps 757 mmHg 50%
    13:00 +35°C° 0 mm 5 mps 756 mmHg 50%
    14:00 +34°C° 0 mm 5 mps 756 mmHg 53%
    15:00 +33°C° 0 mm 5 mps 756 mmHg 55%
    16:00 +33°C° 0 mm 4 mps 755 mmHg 57%
    17:00 +32°C° 0.1 mm 4 mps 756 mmHg 62%
    18:00 +30°C° 0.1 mm 3 mps 756 mmHg 66%
    19:00 +29°C° 0.1 mm 3 mps 757 mmHg 70%
    20:00 +28°C° 0 mm 3 mps 757 mmHg 72%
    21:00 +28°C° 0 mm 2 mps 758 mmHg 73%
    22:00 +28°C° 0 mm 2 mps 758 mmHg 75%
    23:00 +28°C° 0 mm 2 mps 758 mmHg 75%

    25 January, Friday

    Time Temperature Precipitation Wind Pressure Humidity
    00:00 +27°C° 0 mm 2 mps 758 mmHg 75%
    01:00 +27°C° 0 mm 2 mps 757 mmHg 75%
    02:00 +27°C° 0 mm 1 mps 757 mmHg 76%
    03:00 +27°C° 0 mm 1 mps 757 mmHg 76%
    04:00 +27°C° 0 mm 1 mps 757 mmHg 76%
    05:00 +27°C° 0 mm 1 mps 757 mmHg 76%
    06:00 +28°C° 0 mm 1 mps 758 mmHg 75%
    07:00 +28°C° 0 mm 1 mps 758 mmHg 74%
    08:00 +29°C° 0 mm 1 mps 758 mmHg 70%
    09:00 +30°C° 0 mm 2 mps 758 mmHg 66%
    10:00 +32°C° 0 mm 2 mps 758 mmHg 61%
    11:00 +33°C° 0 mm 3 mps 758 mmHg 59%
    12:00 +34°C° 0 mm 4 mps 757 mmHg 57%
    13:00 +35°C° 0 mm 5 mps 757 mmHg 55%
    14:00 +34°C° 0 mm 4 mps 756 mmHg 57%
    15:00 +34°C° 0 mm 4 mps 756 mmHg 58%
    16:00 +33°C° 0 mm 4 mps 756 mmHg 60%
    17:00 +32°C° 0.1 mm 4 mps 756 mmHg 64%
    18:00 +30°C° 0.1 mm 3 mps 757 mmHg 68%
    19:00 +29°C° 0.1 mm 2 mps 757 mmHg 73%
    20:00 +29°C° 0 mm 2 mps 758 mmHg 73%
    21:00 +29°C° 0 mm 2 mps 758 mmHg 73%
    22:00 +29°C° 0 mm 2 mps 759 mmHg 74%
    23:00 +29°C° 0 mm 2 mps 759 mmHg 74%
    Show more